Regional Weather Roundup
Issued by NWS

Home | Current Version | Previous Version | Graphics & Text | Print | Product List | Glossary On
Versions: 1 2 3 4 5 6 7 8 9 10 11 12 13 14 15 16 17 18 19 20 21 22 23 24 25 26 27 28 29 30 31 32 33 34 35 36 37 38 39 40 41 42 43 44 45 46 47 48 49 50
000
ASUS43 KFSD 212302
RWRSD

WEATHER ROUNDUP FOR SOUTH DAKOTA
NATIONAL WEATHER SERVICE SIOUX FALLS SD
600 PM CDT MON JUL 21 2014

NOTE: "FAIR" INDICATES FEW OR NO CLOUDS BELOW 12,000 FEET WITH NO
SIGNIFICANT WEATHER AND/OR OBSTRUCTIONS TO VISIBILITY.


SDZ001>005-009-010-012>017-220000-
NORTHWEST AND NORTH CENTRAL SOUTH DAKOTA

CITY           SKY/WX    TMP DP  RH WIND       PRES   REMARKS
BUFFALO          N/A     88  57  34 NW18      29.81S
FAITH            N/A     94  57  28 W20G32    29.80R
MOBRIDGE       MOSUNNY   93  73  52 W12       29.67S HX 102
$$

SDZ012>016-024>037-041>051-057-063-072>074-220000-
SOUTHWEST AND SOUTH CENTRAL SOUTH DAKOTA

CITY           SKY/WX    TMP DP  RH WIND       PRES   REMARKS
RAPID CTY ARPT MOSUNNY   90  57  32 NE8       29.86S
PIERRE         SUNNY    101  58  24 W17       29.71S HX 100
CUSTER         MOSUNNY   89  36  15 W16G26    30.07S
ELLSWORTH AFB  PTSUNNY   96  49  20 N15       29.86S
PHILIP         SUNNY    102  52  18 W14       29.77S HX  99
PINE RIDGE     MOSUNNY   97  48  18 W12G23    29.88F
WINNER         FAIR     106  51  16 W16G25    29.76F HX 103
$$

SDZ004>011-016>023-039-040-220000-
NORTHEAST SOUTH DAKOTA

CITY           SKY/WX    TMP DP  RH WIND       PRES   REMARKS
ABERDEEN       MOSUNNY   89  77  67 S14       29.69F HX 101
WATERTOWN      SUNNY     85  75  72 S20G25    29.76S
SISSETON         N/A     88  80  77 S18G25    29.69F HX 104
$$

SDZ017-020-022-023-036>040-048>070-220000-
SOUTHEAST SOUTH DAKOTA

CITY           SKY/WX    TMP DP  RH WIND       PRES   REMARKS
SIOUX FALLS    PTSUNNY   87  77  72 S17       29.79F HX  99
HURON          SUNNY     92  77  61 SE14G22   29.69F HX 105
CHAMBERLAIN    SUNNY    103  54  19 W17G28    29.72S HX 101
MITCHELL       SUNNY     94  77  57 S17       29.72F HX 108
YANKTON        SUNNY     91  79  66 SE10      29.77F HX 107
$$

ABBREVIATIONS USED IN REMARKS
   TC - TEMPERATURE IN CELSIUS
  WCI - WIND CHILL INDEX
   HX - HEAT INDEX
  VSB - VISIBILITY



USA.gov is the U.S. government's official web portal to all federal, state and local government web resources and services.